Погода в Благовещенке

Россия / Саратовская область     51°19′27″N   44°03′18″E
темп.,
°C
ветер,
м/с
пор.,
м/с
влажн.,
%
обл.,
%
осадки,
мм/ч
давл.,
гПа
погр.,
м
14 апреля, ср
ср1401:00+11вюв51258100 0.0 1026199
04:00+9вюв5116124 0.0 1025172
07:00+8в5126298 0.0 1024188
10:00+14вюв6114497 0.0 1023456
13:00+18вюв7931100 0.0 10211079
16:00+19вюв782863 0.0 10201526
19:00+17вюв48425 0.0 1019177
22:00+12в410581 0.0 1019150
15 апреля, чт
чт1501:00+11вюв513622 0.0 1018208
04:00+9вюв5126514 0.0 1017185
07:00+8вюв487140 0.0 1017141
10:00+15вюв464875 0.0 1016364
13:00+20юв45305 0.0 10151091
16:00+21вюв452899 0.0 10151981
19:00+18вюв234397 0.0 101444
22:00+14вюв3449100 0.0 101543
16 апреля, пт
пт1601:00+13юв2254100 0.0 101520
04:00+11св2259100 0.0 101512
07:00+11в3461100 0.0 101670
10:00+15вюв3546100 0.0 1016357
13:00+19вюв233676 0.0 10161200
16:00+20всв223158 0.0 10162438
19:00+17в584532 0.0 1016239
22:00+13в475917 0.0 1018117
17 апреля, сб
сб1701:00+12в496412 0.0 1018149
04:00+10в41069100 0.0 1018175
07:00+10в6126996 0.0 1018237
10:00+14вюв6856100 0.0 1019654
13:00+18вюв5746100 0.0 10181691
16:00+17юв5849100 0.3 10181723
19:00+10зсз2292100 4.6 1020143
22:00+10всв4595100 8.3 1021263
18 апреля, вс
вс1801:00+10всв5989100 0.2 1021406
04:00+9всв5992100 0.4 1021323
07:00+7всв4889100 0.8 1022325
10:00+6всв61088100 2.4 1022411
13:00+7всв41086100 2.4 1023524
16:00+9ссв3678100 2.8 1022307
19:00+10св41068100 0.1 1021286
22:00+10всв71561100 0.1 1022404